Weather History for Columbus AFB, MS

Change the Weather History Date:

Friday, January 25, 2013

  Actual Average Record
Temperature  
Mean Temperature 54 °F -  
Max Temperature 66 °F 53 °F 73 °F (1999)
Min Temperature 41 °F 34 °F 18 °F (2014)
Degree Days  
Heating Degree Days 12    
Growing Degree Days 4 (Base 50)    
Moisture  
Dew Point 46 °F    
Average Humidity 82    
Maximum Humidity 100    
Minimum Humidity 43    
Precipitation  
Precipitation 0.07 in - - ()
Sea Level Pressure  
Sea Level Pressure 30.16 in    
Wind  
Wind Speed 8 mph (NW)    
Max Wind Speed 18 mph    
Max Gust Speed 22 mph    
Visibility 9 miles    
Events Rain    
Averages and records for this station are not official NWS values.
T = Trace of Precipitation, MM = Missing Value Source: NWS Daily Summary

Daily Weather History Graph

Daily Weather History Graph

Search for Another Location

Airport:

Trip Planner

Search our weather history database for the weather conditions in past years. The results will help you decide how hot, cold, wet, or windy it might be!

Date:

Astronomy

Jan. 25, 2013 Rise Set
Actual Time 6:54 AM CST 5:18 PM CST
Civil Twilight 6:27 AM CST 5:44 PM CST
Nautical Twilight 5:57 AM CST 6:15 PM CST
Astronomical Twilight 5:28 AM CST 6:44 PM CST
Moon 4:15 PM CST (1/25) 5:33 AM CST (1/25)
Length of Visible Light 11h 17m
Length of Day
10h 24m
Waxing Gibbous, 98% of the Moon is Illuminated
Jan 25
Waxing Gibbous
Jan 26
Full
Feb 3
Last Quarter
Feb 10
New
Feb 17
First Quarter

Hourly Weather History & Observations

Time (CST) Temp. Windchill Dew Point Humidity Pressure Visibility Wind Dir Wind Speed Gust Speed Precip Events Conditions
12:55 AM 47.1 °F - 25.7 °F 43% 30.25 in 10.0 mi SE 3.5 mph - N/A   Overcast
1:55 AM 47.1 °F - 26.4 °F 45% 30.24 in 10.0 mi SE 6.9 mph - N/A   Overcast
2:55 AM 47.1 °F - 28.2 °F 48% 30.22 in 10.0 mi SE 4.6 mph - N/A   Overcast
3:19 AM 48.2 °F - 28.4 °F 46% 30.20 in 10.0 mi SSE 6.9 mph - N/A   Overcast
3:42 AM 48.2 °F - 28.4 °F 46% 30.20 in 10.0 mi SSE 6.9 mph - N/A   Overcast
3:49 AM 50.0 °F - 30.2 °F 47% 30.20 in 10.0 mi SSE 5.8 mph - N/A   Overcast
3:55 AM 49.5 °F - 30.0 °F 47% 30.20 in 10.0 mi SSE 6.9 mph - N/A   Overcast
3:57 AM 50.0 °F - 30.2 °F 47% 30.20 in 10.0 mi SSE 5.8 mph - N/A   Overcast
4:05 AM 50.0 °F - 30.2 °F 47% 30.20 in 10.0 mi SSE 6.9 mph - N/A   Overcast
4:55 AM 50.2 °F - 36.0 °F 58% 30.16 in 10.0 mi SSE 9.2 mph - N/A   Overcast
5:03 AM 50.0 °F - 37.4 °F 62% 30.16 in 10.0 mi SSE 12.7 mph - N/A   Overcast
5:25 AM 50.0 °F - 39.2 °F 66% 30.17 in 10.0 mi SSE 8.1 mph - N/A   Mostly Cloudy
5:55 AM 50.5 °F - 40.1 °F 67% 30.16 in 10.0 mi SSE 10.4 mph - N/A   Mostly Cloudy
6:55 AM 51.1 °F - 42.4 °F 72% 30.17 in 10.0 mi Calm Calm - N/A   Overcast
7:55 AM 52.3 °F - 45.9 °F 79% 30.17 in 10.0 mi SSW 5.8 mph - N/A   Overcast
8:55 AM 54.9 °F - 48.9 °F 80% 30.17 in 10.0 mi SSW 6.9 mph - N/A   Mostly Cloudy
9:02 AM 55.4 °F - 48.2 °F 77% 30.17 in 10.0 mi SSW 9.2 mph - N/A   Overcast
9:07 AM 55.4 °F - 50.0 °F 82% 30.17 in 10.0 mi SSW 9.2 mph - N/A   Mostly Cloudy
9:55 AM 57.6 °F - 50.4 °F 77% 30.17 in 10.0 mi SSW 8.1 mph - N/A   Mostly Cloudy
10:55 AM 62.6 °F - 51.8 °F 68% 30.17 in 10.0 mi WSW 6.9 mph - N/A   Overcast
11:13 AM 62.6 °F - 51.8 °F 68% 30.17 in 10.0 mi West 5.8 mph - N/A Rain Light Rain
11:23 AM 62.6 °F - 53.6 °F 72% 30.17 in 10.0 mi West 9.2 mph - N/A   Overcast
11:58 AM 65.8 °F - 51.1 °F 59% 30.13 in 10.0 mi WSW 12.7 mph - 0.00 in   Mostly Cloudy
12:08 PM 66.2 °F - 51.8 °F 60% 30.12 in 10.0 mi WSW 11.5 mph - N/A   Mostly Cloudy
12:46 PM 66.2 °F - 51.8 °F 60% 30.10 in 10.0 mi WSW 12.7 mph - N/A   Overcast
12:58 PM 66.2 °F - 52.0 °F 60% 30.09 in 10.0 mi WSW 15.0 mph 18.4 mph N/A   Overcast
1:38 PM 66.2 °F - 53.6 °F 64% 30.09 in 10.0 mi West 12.7 mph 21.9 mph N/A   Overcast
1:58 PM 65.3 °F - 54.0 °F 67% 30.09 in 10.0 mi West 12.7 mph 20.7 mph N/A   Overcast
2:03 PM 64.4 °F - 53.6 °F 68% 30.09 in 10.0 mi West 13.8 mph 20.7 mph N/A   Overcast
2:38 PM 64.4 °F - 55.4 °F 73% 30.10 in 10.0 mi West 12.7 mph 18.4 mph N/A   Light Drizzle
2:43 PM 62.6 °F - 57.2 °F 82% 30.10 in 10.0 mi WNW 15.0 mph 18.4 mph N/A Rain Light Rain
2:47 PM 60.8 °F - 55.4 °F 82% 30.11 in 10.0 mi NW 18.4 mph - N/A Rain Light Rain
2:49 PM 60.8 °F - 55.4 °F 82% 30.11 in 8.0 mi NNW 17.3 mph - N/A Rain Rain
2:58 PM 55.4 °F - 51.8 °F 88% 30.11 in 5.0 mi NNW 16.1 mph - 0.00 in Rain Light Rain
2:59 PM 53.6 °F - 51.8 °F 94% 30.11 in 5.0 mi NNW 15.0 mph - N/A   Overcast
3:04 PM 53.6 °F - 50.0 °F 88% 30.11 in 6.0 mi NNW 11.5 mph - N/A   Overcast
3:05 PM 51.8 °F - 50.0 °F 94% 30.11 in 6.0 mi NNW 11.5 mph - N/A Rain Light Rain
3:10 PM 51.8 °F - 50.0 °F 94% 30.12 in 8.0 mi NNW 12.7 mph - N/A Rain Light Rain
3:15 PM 51.8 °F - 50.0 °F 94% 30.12 in 9.0 mi NNW 11.5 mph - N/A Rain Light Rain
3:26 PM 50.0 °F - 48.2 °F 94% 30.12 in 10.0 mi NNW 11.5 mph - N/A   Overcast
3:28 PM 50.0 °F - 50.0 °F 100% 30.12 in 10.0 mi NNW 11.5 mph - N/A Rain Light Rain
3:38 PM 50.0 °F - 50.0 °F 100% 30.13 in 10.0 mi NNW 10.4 mph - N/A   Overcast
3:43 PM 50.0 °F - 48.2 °F 94% 30.13 in 10.0 mi NNW 10.4 mph - N/A   Overcast
3:45 PM 50.0 °F - 48.2 °F 94% 30.13 in 10.0 mi NNW 9.2 mph - N/A Rain Light Rain
3:56 PM 50.0 °F - 48.2 °F 94% 30.13 in 10.0 mi NNW 8.1 mph - N/A   Overcast
3:58 PM 50.0 °F - 48.2 °F 94% 30.13 in 10.0 mi NNW 8.1 mph - 0.00 in   Overcast
3:59 PM 50.0 °F - 48.2 °F 94% 30.13 in 10.0 mi NNW 8.1 mph - N/A   Light Drizzle
4:04 PM 50.0 °F - 48.2 °F 94% 30.13 in 10.0 mi NNW 10.4 mph - N/A   Light Drizzle
4:19 PM 50.0 °F - 48.2 °F 94% 30.14 in 10.0 mi NNW 9.2 mph - N/A   Overcast
4:30 PM 50.0 °F - 48.2 °F 94% 30.13 in 10.0 mi NNW 6.9 mph - N/A Rain Light Rain
4:55 PM 50.0 °F - 48.2 °F 94% 30.14 in 4.0 mi NNW 4.6 mph - N/A Rain Light Rain
4:58 PM 49.6 °F - 48.9 °F 97% 30.14 in 4.0 mi NNW 4.6 mph - 0.01 in Rain Light Rain
5:03 PM 50.0 °F - 48.2 °F 94% 30.14 in 7.0 mi NNW 4.6 mph - N/A Rain Light Rain
5:28 PM 50.0 °F - 48.2 °F 94% 30.14 in 7.0 mi NNW 3.5 mph - N/A Rain Light Rain
5:58 PM 49.5 °F - 48.9 °F 98% 30.15 in 8.0 mi NNW 3.5 mph - 0.01 in Rain Light Rain
6:18 PM 50.0 °F - 48.2 °F 94% 30.16 in 9.0 mi NNW 6.9 mph - N/A Rain Light Rain
6:28 PM 48.2 °F - 48.2 °F 100% 30.16 in 7.0 mi NNW 4.6 mph - N/A Rain Light Rain
6:38 PM 48.2 °F - 48.2 °F 100% 30.16 in 5.0 mi NW 4.6 mph - N/A Rain Light Rain
6:58 PM 48.6 °F - 48.4 °F 99% 30.16 in 7.0 mi NW 5.8 mph - 0.03 in Rain Light Rain
7:17 PM 48.2 °F - 48.2 °F 100% 30.17 in 9.0 mi NNW 6.9 mph - N/A   Overcast
7:30 PM 48.2 °F - 48.2 °F 100% 30.18 in 10.0 mi NW 9.2 mph - N/A Rain Light Rain
7:45 PM 48.2 °F - 46.4 °F 93% 30.18 in 10.0 mi NNW 10.4 mph - N/A Rain Light Rain
7:50 PM 46.4 °F 41.9 °F 46.4 °F 100% 30.18 in 10.0 mi NNW 9.2 mph - N/A   Overcast
7:57 PM 46.4 °F 41.5 °F 46.4 °F 100% 30.18 in 10.0 mi NNW 10.4 mph - N/A Rain Light Rain
7:58 PM 46.4 °F 41.5 °F 46.4 °F 100% 30.18 in 10.0 mi NNW 10.4 mph - 0.01 in Rain Light Rain
8:08 PM 46.4 °F 41.9 °F 44.6 °F 93% 30.18 in 9.0 mi NNW 9.2 mph - N/A Rain Light Rain
8:21 PM 46.4 °F 41.9 °F 44.6 °F 93% 30.18 in 10.0 mi NNW 9.2 mph - N/A   Overcast
8:26 PM 46.4 °F 42.9 °F 44.6 °F 93% 30.18 in 10.0 mi North 6.9 mph - N/A   Overcast
8:46 PM 44.6 °F 38.8 °F 44.6 °F 100% 30.19 in 10.0 mi NNW 11.5 mph - N/A   Overcast
8:58 PM 45.3 °F 39.7 °F 44.2 °F 96% 30.19 in 10.0 mi NNW 11.5 mph - 0.00 in   Overcast
9:05 PM 44.6 °F 38.8 °F 44.6 °F 100% 30.20 in 10.0 mi NNW 11.5 mph - N/A Rain Light Rain
9:44 PM 44.6 °F 40.2 °F 42.8 °F 93% 30.21 in 10.0 mi NNW 8.1 mph - N/A   Overcast
9:58 PM 43.5 °F 38.9 °F 42.4 °F 96% 30.21 in 10.0 mi NNW 8.1 mph - 0.01 in   Overcast
10:00 PM 42.8 °F 38.0 °F 42.8 °F 100% 30.21 in 10.0 mi NNW 8.1 mph - N/A Rain Light Rain
10:09 PM 42.8 °F 37.0 °F 42.8 °F 100% 30.21 in 10.0 mi North 10.4 mph - N/A   Overcast
10:58 PM 42.4 °F 37.5 °F 41.7 °F 97% 30.22 in 10.0 mi North 8.1 mph - 0.00 in   Overcast
11:18 PM 41.0 °F 35.2 °F 41.0 °F 100% 30.22 in 10.0 mi NNW 9.2 mph - N/A   Overcast
11:58 PM 41.5 °F 35.4 °F 40.5 °F 96% 30.23 in 10.0 mi NNW 10.4 mph - N/A   Overcast